• In Hungary
  • List of Countries
  • For 7 days
  • Water Temperature
  • Satellite Maps
  • Weather Map
  • News
  • Weather Widgets
  • user-avatar
    Login

    Hourly Weather Mutare

    Today, 21 September, Friday

    Time Temperature Precipitation Wind Pressure Humidity
    00:00 +20°C° 0 mm 1 mps 657 mmHg 68%
    01:00 +19°C° 0 mm 1 mps 656 mmHg 74%
    02:00 +18°C° 0 mm 1 mps 656 mmHg 80%
    03:00 +18°C° 0 mm 1 mps 656 mmHg 82%
    04:00 +16°C° 0 mm 1 mps 656 mmHg 85%
    05:00 +16°C° 0 mm 1 mps 656 mmHg 88%
    06:00 +18°C° 0 mm 1 mps 657 mmHg 79%
    07:00 +20°C° 0 mm 1 mps 657 mmHg 69%
    08:00 +21°C° 0 mm 2 mps 658 mmHg 56%
    09:00 +25°C° 0 mm 2 mps 658 mmHg 47%
    10:00 +27°C° 0 mm 2 mps 658 mmHg 39%
    11:00 +29°C° 0 mm 3 mps 659 mmHg 31%
    12:00 +29°C° 0 mm 3 mps 658 mmHg 29%
    13:00 +30°C° 0 mm 3 mps 658 mmHg 26%
    14:00 +30°C° 0 mm 3 mps 657 mmHg 29%
    15:00 +29°C° 0 mm 3 mps 657 mmHg 30%
    16:00 +28°C° 0 mm 3 mps 657 mmHg 30%
    17:00 +27°C° 0 mm 4 mps 656 mmHg 31%
    18:00 +25°C° 0 mm 3 mps 656 mmHg 38%
    19:00 +23°C° 0 mm 2 mps 656 mmHg 45%
    20:00 +20°C° 0 mm 2 mps 656 mmHg 52%
    21:00 +20°C° 0 mm 2 mps 656 mmHg 57%
    22:00 +20°C° 0 mm 1 mps 656 mmHg 62%
    23:00 +19°C° 0 mm 1 mps 656 mmHg 67%

    Tomorrow, 22 September, Saturday

    Time Temperature Precipitation Wind Pressure Humidity
    00:00 +18°C° 0 mm 1 mps 656 mmHg 72%
    01:00 +18°C° 0 mm 1 mps 655 mmHg 77%
    02:00 +16°C° 0 mm 1 mps 655 mmHg 83%
    03:00 +16°C° 0 mm 1 mps 655 mmHg 85%
    04:00 +15°C° 0 mm 1 mps 655 mmHg 87%
    05:00 +15°C° 0 mm 1 mps 655 mmHg 89%
    06:00 +18°C° 0 mm 1 mps 656 mmHg 76%
    07:00 +20°C° 0 mm 1 mps 657 mmHg 63%
    08:00 +23°C° 0 mm 1 mps 658 mmHg 50%
    09:00 +25°C° 0 mm 2 mps 658 mmHg 41%
    10:00 +27°C° 0 mm 2 mps 658 mmHg 31%
    11:00 +29°C° 0 mm 3 mps 659 mmHg 21%
    12:00 +30°C° 0 mm 3 mps 658 mmHg 19%
    13:00 +30°C° 0 mm 3 mps 658 mmHg 17%
    14:00 +31°C° 0 mm 3 mps 657 mmHg 16%
    15:00 +30°C° 0 mm 4 mps 657 mmHg 17%
    16:00 +29°C° 0 mm 4 mps 656 mmHg 18%
    17:00 +28°C° 0 mm 4 mps 656 mmHg 20%
    18:00 +25°C° 0 mm 3 mps 656 mmHg 24%
    19:00 +22°C° 0 mm 3 mps 656 mmHg 28%
    20:00 +20°C° 0 mm 2 mps 656 mmHg 33%
    21:00 +19°C° 0 mm 2 mps 656 mmHg 40%
    22:00 +18°C° 0 mm 2 mps 656 mmHg 47%
    23:00 +18°C° 0 mm 1 mps 656 mmHg 54%

    Day after tomorrow, 23 September, Sunday

    Time Temperature Precipitation Wind Pressure Humidity
    00:00 +16°C° 0 mm 1 mps 656 mmHg 60%
    01:00 +16°C° 0 mm 1 mps 655 mmHg 66%
    02:00 +15°C° 0 mm 1 mps 655 mmHg 71%
    03:00 +14°C° 0 mm 1 mps 655 mmHg 73%
    04:00 +14°C° 0 mm 1 mps 655 mmHg 74%
    05:00 +13°C° 0 mm 1 mps 655 mmHg 76%
    06:00 +16°C° 0 mm 1 mps 656 mmHg 64%
    07:00 +19°C° 0 mm 1 mps 657 mmHg 53%
    08:00 +22°C° 0 mm 1 mps 658 mmHg 42%
    09:00 +24°C° 0 mm 2 mps 658 mmHg 34%
    10:00 +26°C° 0 mm 3 mps 659 mmHg 27%
    11:00 +28°C° 0 mm 3 mps 659 mmHg 20%
    12:00 +29°C° 0 mm 3 mps 658 mmHg 19%
    13:00 +29°C° 0 mm 3 mps 657 mmHg 18%
    14:00 +30°C° 0 mm 4 mps 657 mmHg 16%
    15:00 +29°C° 0 mm 4 mps 656 mmHg 18%
    16:00 +28°C° 0 mm 4 mps 656 mmHg 20%
    17:00 +27°C° 0 mm 4 mps 655 mmHg 22%
    18:00 +24°C° 0 mm 3 mps 655 mmHg 27%
    19:00 +21°C° 0 mm 2 mps 655 mmHg 32%
    20:00 +19°C° 0 mm 2 mps 655 mmHg 37%
    21:00 +18°C° 0 mm 2 mps 655 mmHg 43%
    22:00 +18°C° 0 mm 1 mps 655 mmHg 49%
    23:00 +16°C° 0 mm 1 mps 655 mmHg 55%

    24 September, Monday

    Time Temperature Precipitation Wind Pressure Humidity
    00:00 +16°C° 0 mm 1 mps 655 mmHg 61%
    01:00 +15°C° 0 mm 1 mps 654 mmHg 68%
    02:00 +15°C° 0 mm 1 mps 654 mmHg 74%
    03:00 +14°C° 0 mm 1 mps 654 mmHg 77%
    04:00 +14°C° 0 mm 1 mps 653 mmHg 80%
    05:00 +14°C° 0 mm 1 mps 653 mmHg 83%
    06:00 +16°C° 0 mm 1 mps 654 mmHg 72%
    07:00 +20°C° 0 mm 1 mps 656 mmHg 61%
    08:00 +22°C° 0 mm 1 mps 657 mmHg 50%
    09:00 +25°C° 0 mm 1 mps 657 mmHg 42%
    10:00 +28°C° 0 mm 2 mps 657 mmHg 33%
    11:00 +31°C° 0 mm 2 mps 658 mmHg 24%
    12:00 +31°C° 0 mm 2 mps 657 mmHg 23%
    13:00 +32°C° 0 mm 2 mps 656 mmHg 22%
    14:00 +32°C° 0 mm 2 mps 655 mmHg 20%
    15:00 +31°C° 0 mm 3 mps 655 mmHg 23%
    16:00 +30°C° 0 mm 3 mps 655 mmHg 25%
    17:00 +29°C° 0 mm 4 mps 654 mmHg 27%
    18:00 +27°C° 0 mm 3 mps 654 mmHg 32%
    19:00 +25°C° 0 mm 3 mps 655 mmHg 37%
    20:00 +22°C° 0 mm 3 mps 655 mmHg 42%
    21:00 +21°C° 0 mm 2 mps 655 mmHg 50%
    22:00 +20°C° 0 mm 2 mps 655 mmHg 58%
    23:00 +19°C° 0 mm 2 mps 655 mmHg 66%

    25 September, Tuesday

    Time Temperature Precipitation Wind Pressure Humidity
    00:00 +18°C° 0 mm 2 mps 654 mmHg 72%
    01:00 +18°C° 0 mm 1 mps 654 mmHg 77%
    02:00 +18°C° 0 mm 1 mps 653 mmHg 82%
    03:00 +16°C° 0 mm 1 mps 653 mmHg 83%
    04:00 +16°C° 0 mm 1 mps 653 mmHg 85%
    05:00 +15°C° 0 mm 1 mps 653 mmHg 87%
    06:00 +19°C° 0 mm 1 mps 654 mmHg 74%
    07:00 +20°C° 0 mm 2 mps 655 mmHg 60%
    08:00 +23°C° 0 mm 2 mps 656 mmHg 47%
    09:00 +26°C° 0 mm 2 mps 657 mmHg 39%
    10:00 +29°C° 0 mm 2 mps 657 mmHg 32%
    11:00 +31°C° 0 mm 2 mps 657 mmHg 24%
    12:00 +32°C° 0 mm 2 mps 656 mmHg 22%
    13:00 +34°C° 0 mm 3 mps 655 mmHg 20%
    14:00 +34°C° 0 mm 3 mps 655 mmHg 18%
    15:00 +33°C° 0 mm 3 mps 654 mmHg 20%
    16:00 +31°C° 0 mm 3 mps 654 mmHg 21%
    17:00 +30°C° 0 mm 3 mps 654 mmHg 23%
    18:00 +28°C° 0 mm 3 mps 654 mmHg 28%
    19:00 +26°C° 0 mm 3 mps 654 mmHg 32%
    20:00 +24°C° 0 mm 2 mps 654 mmHg 37%
    21:00 +23°C° 0 mm 2 mps 654 mmHg 43%
    22:00 +21°C° 0 mm 2 mps 654 mmHg 49%
    23:00 +21°C° 0 mm 1 mps 654 mmHg 55%

    26 September, Wednesday

    Time Temperature Precipitation Wind Pressure Humidity
    00:00 +20°C° 0 mm 1 mps 654 mmHg 60%
    01:00 +20°C° 0 mm 1 mps 653 mmHg 65%
    02:00 +19°C° 0 mm 1 mps 653 mmHg 70%
    03:00 +18°C° 0 mm 1 mps 653 mmHg 72%
    04:00 +18°C° 0 mm 1 mps 653 mmHg 73%
    05:00 +18°C° 0 mm 1 mps 653 mmHg 74%
    06:00 +21°C° 0 mm 1 mps 654 mmHg 62%
    07:00 +24°C° 0 mm 1 mps 655 mmHg 50%
    08:00 +26°C° 0 mm 1 mps 656 mmHg 38%
    09:00 +29°C° 0 mm 1 mps 657 mmHg 31%
    10:00 +32°C° 0 mm 1 mps 657 mmHg 25%
    11:00 +35°C° 0 mm 2 mps 657 mmHg 19%
    12:00 +35°C° 0 mm 2 mps 656 mmHg 18%
    13:00 +35°C° 0 mm 2 mps 656 mmHg 18%
    14:00 +35°C° 0 mm 3 mps 655 mmHg 17%
    15:00 +34°C° 0 mm 3 mps 655 mmHg 19%
    16:00 +33°C° 0 mm 3 mps 654 mmHg 21%
    17:00 +31°C° 0 mm 3 mps 654 mmHg 22%
    18:00 +29°C° 0 mm 3 mps 654 mmHg 27%
    19:00 +27°C° 0 mm 3 mps 654 mmHg 32%
    20:00 +25°C° 0 mm 2 mps 654 mmHg 36%
    21:00 +24°C° 0 mm 2 mps 654 mmHg 43%
    22:00 +23°C° 0 mm 2 mps 654 mmHg 49%
    23:00 +21°C° 0 mm 2 mps 654 mmHg 55%
    Show more